Location: Ajisawe
(8.4333°N, 4.3833°E)
Time: 13:27:22
(UTC+00:00)

SR - Pass Details

Date: 28 April 2021
Orbit: 573 x 882 km, 66.7° (Epoch: 15 May)

Event Time Altitude Azimuth Distance (km) Brightness Sun altitude
Exits shadow 04:54:22 11° 253° (WSW) 2,243 ? -8.8°
Maximum altitude 04:57:47 19° 295° (WNW) 1,833 ? -8.0°
Drops below altitude 10° 05:01:34 10° 338° (NNW) 2,420 ? -7.1°
Sets 05:04:51 0° 356° (N) 3,399 ? -6.3°
